Regional Weather Roundup
Issued by NWS Sioux Falls, SD

Home | Current Version | Previous Version | Text Only | Print | Product List | Glossary On
Versions: 1 2 3 4 5 6 7 8 9 10 11 12 13 14 15 16 17 18 19 20 21 22 23 24 25 26 27 28 29 30 31 32 33 34 35 36 37 38 39 40 41 42 43 44 45 46 47 48 49 50
000
ASUS43 KFSD 301610
RWRFSD

WEATHER ROUNDUP FOR SE SOUTH DAKOTA/SW MINNESOTA/NW IOWA
NATIONAL WEATHER SERVICE SIOUX FALLS SD
1100 AM CDT SAT AUG 30 2014

NOTE: "FAIR" INDICATES FEW OR NO CLOUDS BELOW 12,000 FEET WITH NO
SIGNIFICANT WEATHER AND OR OBSTRUCTIONS TO VISIBILITY.


SDZ038>040-050-052>070-301700-
SOUTHEAST SOUTH DAKOTA

CITY           SKY/WX    TMP DP  RH WIND       PRES   REMARKS
CHAMBERLAIN    CLOUDY    59  56  88 CALM      29.97F
HURON          CLOUDY    62  56  80 CALM      29.95R
MADISON        CLOUDY    63  63 100 N6        29.94S
MITCHELL       CLOUDY    63  58  83 NW6       29.96S
SIOUX FALLS    CLOUDY    65  61  87 NW8       29.94R
WINNER         FAIR      68  57  68 S5        29.97F
YANKTON        CLOUDY    64  57  77 W8        29.96S
$$

MNZ071-072-080-081-089-090-097-098-301700-
SOUTHWEST MINNESOTA

CITY           SKY/WX    TMP DP  RH WIND       PRES   REMARKS
FAIRMONT       CLOUDY    64  61  88 NW12      29.90R
JACKSON        CLOUDY    64  61  88 W8        29.92S
LUVERNE        CLOUDY    68  61  77 NW7       29.93S
MARSHALL       CLOUDY    63  57  82 NW9       29.91R
MONTEVIDEO     CLOUDY    63  63 100 N6        29.91S
PIPESTONE      DRIZZLE   63  61  94 NW6       29.93S
REDWOOD FALLS  CLOUDY    64  62  93 W10       29.90R
TRACY          CLOUDY    62  61  97 CALM      29.92S FOG
WINDOM         CLOUDY    66  63  88 W10       29.92R
WORTHINGTON    CLOUDY    63  63 100 N7        29.94S
$$

IAZ001>003-012>014-020>022-031-032-NEZ013-014-SDZ071-301700-
NORTHWEST IOWA

CITY           SKY/WX    TMP DP  RH WIND       PRES   REMARKS
CHEROKEE       CLOUDY    68  67  99 W7        29.93R
DENISON        CLOUDY    68  68 100 W8        29.92S
ESTHERVILLE    CLOUDY    68  63  84 N9        29.92R
LE MARS        CLOUDY    66  61  82 W8        29.95R
ORANGE CITY    CLOUDY    66  63  88 W8        29.94R
SHELDON        MOSUNNY   70  66  88 VRB7      29.92R
SIOUX CITY     MOSUNNY   70  60  70 N12       29.95R
SPENCER        CLOUDY    69  64  84 NW6       29.92R
STORM LAKE     CLOUDY    68  68 100 NW10      29.93S
$$

ABBREVIATIONS USED IN REMARKS
   TC - TEMPERATURE IN CELSIUS
  WCI - WIND CHILL INDEX
   HX - HEAT INDEX
  VSB - VISIBILITY




USA.gov is the U.S. government's official web portal to all federal, state and local government web resources and services.